SL-8 R/B

Satellite information

Favourite Embed

Satellite Type and Status

ROCKET BODYIN ORBIT

Key statistics

Satellite SL-8 R/B at a glance.

Uptime

20152

Days in orbit

Revolutions

≈ 14.6

Per day

Orbit

LEO

Low Earth Orbit

Inclination

74.0

Latest

Satellite identification and parameters

Extended collection of information and parameters for SL-8 R/B.

Object identification

Identified? True

Debris? False

Object name: SL-8 R/B

International designator: 1970-083B

Object number (NORAD): 4579

Object ID (CCSDS): 4579

Country: COMMONWEALTH OF INDEPENDENT STATES (CIS)

Current information (Y/N): Y

RCS size: LARGE

Orbital parameters

Period: 98.397 minutes

Inclination: 74.0022 deg

SMA: 7060.158 km

Apoapsis: 690.038 km

Periapsis: 674.008 km

RAAN: 271.7915 deg

Eccentricy: 0.00113527

Argument of periapsis: 242.0823 deg

Mean anomaly: 117.9196 deg

Mean motion: 14.63460992 rev/day

Mean motion (dot): 0.00001012 rev/day2

B* drag term: 0.00020131709 1/REarth

Two-line elements (TLE)

Creation date: Dec. 14, 2025, 3:07 a.m.

Reference frame: TEME

Reference center: EARTH

Epoch: Dec. 13, 2025, 12:30 p.m. UTC

TLE line 0: 0 SL-8 R/B

TLE line 1: 1 04579U 70083B 25347.52117417 .00001012 00000-0 20132-3 0 9997

TLE line 2: 2 04579 74.0022 271.7915 0011353 242.0823 117.9196 14.63460992927644

Live tracking on map

Real-time ground track for satellite SL-8 R/B.

In-orbit conjunctions

A list of the most updated potential collisions computed for object SL-8 R/B.

Target Orbit TCA Probability of collision Miss distance Type
COSMOS 2251 DEB LEO 2025-11-09 11:05:56 0.0004637828 470.0 (m) DEBRIS
THORAD AGENA D DEB LEO 2025-06-16 10:55:38 0.0001498878 80.0 (m) DEBRIS
NOAA 16 DEB SSO 2025-03-24 14:29:57 0.0007107983 214.0 (m) DEBRIS
COSMOS 2251 DEB LEO 2024-12-17 07:23:44 0.0002964495 82.0 (m) DEBRIS
SL-8 DEB * LEO 2024-09-04 14:02:09 0.0001269528 816.0 (m) DEBRIS

Associated space launch

The first soviet navigation system called Tsiklon consisted of Zaliv satellites in low earth orbit.

SL-8 R/B was lifted into orbit during the mission ‘Kosmos-3M | Zaliv 6’, on board a Kosmos-3M space rocket.

The launch took place on Oct. 12, 1970, 1:57 p.m. from 132/1 (132L).

For more information about the launch, click the button.

Launch to space Kosmos-3M | Zaliv 6
Kosmos-3M | Zaliv 6

Agency: N/A

Status: Launch Successful

Launch date: Oct. 12, 1970, 1:57 p.m. UTC

Rocket: Kosmos-3M

Launch pad: 132/1 (132L)

Location: Plesetsk Cosmodrome, Russian Federation

...

Latest news about this satellite

There are no fresh news available about this satellite. Check back as we update our databases every day.


Newsletter sign-up

Weekly statistics, charts and insights to help you stay on top of the space industry.